sat.trackr.live / text

‹ back to catalog

ONEWEB-0172

NORAD 48071 · 2021-025AF

PAYLOAD ACTIVE UNKNOWN

§ Identity

Operator
Country
UK
Launch date
2021-03-25
Launch site
VOSTO
Launch vehicle
Mass (kg)
RCS (m²)

Purposes: comms

External: N2YO · Heavens-Above · Gunter

§ Orbital elements

Epoch: 2026-05-24T23:48:56.968128Z

Period
109.63 min
Inclination
87.8947°
Eccentricity
0.0001612
Mean motion
13.13470054 rev/d
Perigee alt
1,208.5 km
Apogee alt
1,211.0 km
Semi-major
7,587.9 km
B*
-6.5393e-4
RAAN
324.8401°
Arg perigee
92.6596°
Mean anomaly
267.4718°
Rev number
25,146

§ Raw data

ONEWEB-01721 48071U 21025AF  26144.99232602 -.00000226  00000+0 -65393-3 0  99902 48071  87.8947 324.8401 0001612  92.6596 267.4718 13.13470054251465

JSON: /api/v1/satellites/48071 · /tle

For live sub-satellite position, see the globe view (requires WebGL).

§ Visibility from observer

Set your observer location to see the next 7 days of passes ≥ 10°. The values pass through the URL so the page stays shareable.

No JS? Fill the form by hand. The geolocation button needs JavaScript.